Regional Weather Roundup
Issued by NWS Charleston, SC

Current Version | Previous Version | Graphics & Text | Print | Product List | Glossary On
Versions: 1 2 3 4 5 6 7 8 9 10 11 12 13 14 15 16 17 18 19 20 21 22 23 24 25 26 27 28 29 30 31 32 33 34 35 36 37 38 39 40 41 42 43 44 45 46 47 48 49 50
000
ASUS42 KCHS 201627
RWRCHS

Regional Weather Roundup
National Weather Service Charleston SC
1200 PM EDT SUN MAY 20 2018

NOTE: "fair" indicates few or no clouds below 12,000 feet with no
significant weather and/or obstructions to visibility.

Not all stations are quality controlled. Use data with caution,
especially dewpoint observations.

SCZ027-030-031-034>040-042>050-201700-
...Southeast South Carolina...

CITY           SKY/WX    TMP DP  RH WIND       PRES   REMARKS
N Charleston   PTSUNNY   81  71  71 S6        30.18R
Waterfront Prk   N/A     77  73  87 S6        30.03R
Mount Pleasant FAIR      79  73  83 S9        30.19R
Johns Island   FAIR      79  73  83 S9        30.19R
Pinopolis        N/A     79  72  78 CALM      30.11R
Moncks Corner  PTSUNNY   79  70  73 S8        30.18S
Summerville    FAIR      79  70  73 S3        30.18F
Beaufort MCAS  PTSUNNY   81  71  71 SE6       30.18R
Beaufort Arpt  CLOUDY    79  72  78 SW5       30.18R
Hilton Head Is MOSUNNY   77  72  83 S6        30.20R
Walterboro     FAIR      79  70  73 CALM      30.19S
Allendale      FAIR      79  72  78 S6        30.17S

...Southern Midlands and Pee Dee...

CITY           SKY/WX    TMP DP  RH WIND       PRES   REMARKS
Georgetown     FAIR      79  77  94 S9        30.19S
Kingstree      FAIR      81  72  74 S7        30.17S
Orangeburg     PTSUNNY   78  70  76 S5        30.17S
Barnwell       CLOUDY    79  72  78 S6        30.17S
Aiken          PTSUNNY   79  70  73 SW3       30.19F
Manning        PTSUNNY   75  68  78 SW7       30.16F
Columbia       CLOUDY    81  72  74 CALM      30.15S
Sumter         CLOUDY    80  68  67 SW6       30.15R
Florence       PTSUNNY   81  70  69 VRB6      30.17R
Myrtle Beach   FAIR      77  72  84 S14       30.20S
N Myrtle Beach FAIR      76  72  87 S15       30.18S

$$

GAZ063-065-086>088-099>101-113>116-118-119-134>141-150-201700-
...Southeast Georgia...

CITY           SKY/WX    TMP DP  RH WIND       PRES   REMARKS
Savannah Arpt  CLOUDY    79  69  71 S5        30.18R
Hunter AAF     FAIR      79  69  70 S5        30.16R
Fort Stewart   PTSUNNY   79  68  69 S5        30.17R
Statesboro     FAIR      81  67  62 W6        30.18R
Sylvania       FAIR      81  71  71 CALM      30.19S
Claxton        PTSUNNY   81  70  69 SE5       30.18R

...CSRA, Central and far Southeast Georgia...

CITY           SKY/WX    TMP DP  RH WIND       PRES   REMARKS
Thomson        CLOUDY    75  71  87 CALM      30.22S
Augusta-Bush   CLOUDY    79  71  76 CALM      30.16S
Augusta-Daniel CLOUDY    78  72  81 SE3       30.17S
Swainsboro     PTSUNNY   81  70  69 CALM      30.17S
Vidalia        FAIR      81  66  61 S7        30.17S
Eastman        PTSUNNY   84  63  49 E3        30.17F
Hazlehurst       N/A     79  67  66 S7        30.17S
Alma           LGT RAIN  77  69  76 W5        30.18R
Waycross       LGT RAIN  74  71  90 CALM      30.18S
Jesup          DRIZZLE   77  70  78 CALM      30.19S
Baxley         RAIN      73  73 100 S3        30.18S
Brunswick      LGT RAIN  77  68  73 E5        30.19R
Saint Simons   LGT RAIN  76  70  82 SE6       30.18R

$$

SCZ027-028-034-036>038-045-046-048>050-GAZ119-141-201700-
...Lake and Supplemental Coastal Observations...

STATION/POSITION TIME  TEMP    WIND        PRES    WAVE   SWELL
                       AIR SEA DIR/SP/G            HT/PER HT/PER/DIR
                 (UTC) (F)     (DEG/KT/KT) (MB)    (FT/S) (FT/S/D)
Winyah Bay       1545   76     160/ 10     1022.0S
Lake Murray      1520   78     170/  5/  6 1020.3
ACE Basin NERRS  1545   81        CALM     1022.0S
Fort Pulaski     1600   78 78  160/  4/  9 1022.5
Sapelo Island    1600   77     110/  4     1022.0

$$

ANZ835-935-AMZ111-154-330-350-352-354-370-450-454-472-201700-
...C-MAN and Buoy Observations...

STATION/POSITION TIME  TEMP    WIND        PRES    WAVE   SWELL
                       AIR SEA DIR/SP/G            HT/PER HT/PER/DIR
                 (UTC) (F)     (DEG/KT/KT) (MB)    (FT/S) (FT/S/D)
Buoy 41004       1600      75  190/ 14/ 17 1022.6
Buoy 41008       1550   74 75  120/  8/ 10 1021.5R   4/ 9   5/140/ 9
Folly Beach CMAN 1600   75     170/ 11/ 13 1022.9R
Capers Nearshore 1608   75 75  180/ 10/ 16 1022.8R
Fripp Nearshore  1608   75 76  160/ 10/ 14 1021.8R


STATION/POSITION TIME  TEMP    WIND        PRES    WAVE   SWELL
                       AIR SEA DIR/SP/G            HT/PER HT/PER/DIR
                 (UTC) (F)     (DEG/KT/KT) (MB)    (FT/S) (FT/S/D)
5E St. Marys GA  1600      74                N/A     4/ 8
Frying Pan Buoy  1610   75 75  190/ 17/ 21 1022.4
Buoy 41025       1610   78 76  210/ 19/ 23 1022.4
Cape Lookout NC  1600          210/ 12/ 14 1022.3R
Buoy 41002       1610      77  160/ 14/ 16 1024.2
Buoy 41010       1610   78 79  120/ 17/ 21 1021.9
St Augustine FL  1600   72 75   50/ 11/ 11 1021.2F


$$



USA.gov is the U.S. government's official web portal to all federal, state and local government web resources and services.